{"data":{"norad_id":68543,"intl_designator":"2026-070B","name":"STARLINK-36308","alt_names":[],"object_type":"PAYLOAD","status":"ACTIVE","operator":null,"country":"US","launch_date":"2026-04-02","launch_site_code":"AFETR","launch_vehicle":null,"mission":null,"orbit_class":"UNKNOWN","rcs_meters":null,"size_class":null,"mass_kg":null,"dimensions":null,"purposes":["comms"],"wikipedia_slug":null,"has_3d_model":false,"image_url":null,"decayed_at":null,"tle_current":{"epoch":"2026-05-25T00:24:41.319360Z","epoch_age_seconds":70240,"freshness":"FRESH","line1":"1 68543U 26070B   26145.01714490  .00017227  00000+0  51947-3 0  9992","line2":"2 68543  53.1610   7.8551 0000958  78.1607 281.9503 15.34421089  8240","mean_motion":15.34421089,"eccentricity":9.58e-5,"inclination_deg":53.161,"raan_deg":7.8551,"arg_perigee_deg":78.1607,"mean_anomaly_deg":281.9503,"bstar":0.00051947,"rev_number":824,"period_min":93.846468242851,"perigee_km":461.98521348246,"apogee_km":463.29590646295,"semimajor_km":6840.7775599727,"source":"CELESTRAK","updated_at":"2026-05-25T13:38:21.959380Z"}}}